Hourly Data Report for October 30, 2020

MUSKOKA
ONTARIO
Current Station Operator: NAVCAN

44°58'29.000" N
79°18'12.000" W
281.90 m
6115529
71532
YQA

Download Data

Hourly Data (October 2020)
Hourly Data Report for October 30, 2020
TIME
LST
Temp Definition
°C
Dew Point Definition
°C
Rel Hum Definition
%
Precip. Amount Definition
mm

Wind Dir Definition
10's deg

Wind Spd Definition
km/h
Visibility Definition
km
Stn Press Definition
kPa
Hmdx Definition


Wind Chill Definition


Weather Definition


00:00 -2.3 -7.4 68 0.0 3 11 16.1 98.07   -6 LegendNANA
01:00 -2.4 -7.6 68 0.0 3 8 16.1 98.12   -6 LegendNANA
02:00 -3.1 -8.9 64 0.0 4 9 16.1 98.19   -7 LegendNANA
03:00 -3.9 -9.4 66 0.0 3 8 16.1 98.19   -7 LegendNANA
04:00 -4.4 -8.9 71 0.0   0 16.1 98.20     LegendNANA
05:00 -5.0 -8.8 75 0.0 4 8 16.1 98.24   -9 LegendNANA
06:00 -5.5 -8.9 77 0.0 6 5 16.1 98.33   -8 LegendNANA
07:00 -6.5 -9.2 81 0.0   0 16.1 98.39     LegendNANA
08:00 -5.1 -8.4 78 0.0 3 8 16.1 98.47   -9 LegendNANA
09:00 -3.8 -8.7 69 0.0 LegendMM 5 16.1 98.52   -6 LegendNANA
10:00 -2.9 -8.6 65 0.0 33 8 16.1 98.56   -6 LegendNANA
11:00 -1.9 -9.1 58 0.0 34 9 16.1 98.59   -5 LegendNANA
12:00 0.2 -8.1 54 0.0 33 15 16.1 98.60     LegendNANA
13:00 0.7 -8.8 49 0.0 29 8 16.1 98.60     LegendNANA
14:00 1.5 -8.2 49 0.0 32 15 16.1 98.61     LegendNANA
15:00 1.3 -8.6 48 0.0 31 13 16.1 98.68     LegendNANA
16:00 0.9 -8.7 49 0.0 31 13 16.1 98.75     LegendNANA
17:00 -0.6 -9.5 51 0.0 31 9 16.1 98.79   -4 LegendNANA
18:00 -1.7 -9.4 56 0.0 31 11 16.1 98.93   -6 LegendNANA
19:00 -3.0 -8.9 64 0.0 32 8 16.1 99.01   -6 LegendNANA
20:00 -3.8 -8.9 68 0.0 27 5 16.1 99.08   -6 LegendNANA
21:00 -4.6 -8.9 72 0.0 33 5 16.1 99.16   -7 LegendNANA
22:00 -6.4 -9.1 82 0.0   0 16.1 99.21     LegendNANA
23:00 -7.4 -9.0 88 0.0   0 16.1 99.29     LegendNANA

Notes on Data Quality.

Legend

  • E = Estimated
  • M = Missing
  • NA = Not Available*
  • [empty] = Indicates an unobserved value
Date modified: